Location: Smoky Mountain Stargaze
(35.4252°N, 83.3329°W)
Time: 20:17:59
(UTC-04:00)

Amateur Radio Satellites - All Passes

Search period start: 30 March 2015 19:47
Search period end: 31 March 2015 19:47
Location: Smoky Mountain Stargaze, 35.4252°N, 83.3329°W

Satellite Date Start Highest point End Downlink Frequencies (MHz)
Time Altitude Azimuth
SRMSAT 30 Mar 19:50:56 19:53:35 13° 191° (S) 19:56:09 437.500
CUTE-I 30 Mar 20:01:26 20:06:04 29° 264° (W) 20:10:37 437.470
Cubesat XI-IV 30 Mar 20:02:03 20:06:40 28° 265° (W) 20:11:12 437.490
AIST 2 30 Mar 20:02:42 20:06:00 22° 50° (NE) 20:09:20 435.215
BEESAT 2 30 Mar 20:20:30 20:24:39 81° 242° (WSW) 20:28:42 435.950
STRAND 1 30 Mar 20:21:00 20:26:04 62° 101° (E) 20:31:06 437.568
GONETS M04 30 Mar 20:33:57 20:42:38 84° 277° (W) 20:51:26
CANX-2 30 Mar 20:38:11 20:40:57 18° 70° (ENE) 20:43:52 2200.000
CUBESAT XI-V 30 Mar 20:39:54 20:44:11 38° 287° (WNW) 20:48:24 437.345
BRITE-PL 30 Mar 20:44:26 20:48:49 39° 74° (ENE) 20:52:57 437.365/2234.400
AUBIESAT-1 30 Mar 20:46:06 20:47:33 11° 300° (WNW) 20:48:44 437.475
CUTE 1.7 + AOD 2 30 Mar 20:51:21 20:54:37 23° 71° (ENE) 20:58:00 437.475
HO-68 30 Mar 20:53:04 20:59:45 46° 69° (ENE) 21:06:33 435.675
PRISM 30 Mar 20:54:38 20:58:18 29° 288° (WNW) 21:01:52 437.425
BEESAT 3 30 Mar 20:56:36 20:59:59 25° 248° (WSW) 21:03:16 437.485
DOVE 4 30 Mar 21:06:57 21:10:35 27° 73° (ENE) 21:14:11 437.250
AAUSAT CUBESAT 2 30 Mar 21:10:40 21:13:49 22° 71° (ENE) 21:17:05 437.432
RS-15 30 Mar 21:17:04 21:27:21 44° 312° (NW) 21:37:42 29.354- 29.394
SEEDS 30 Mar 21:17:51 21:21:43 38° 74° (ENE) 21:25:40 437.485
GOMX 1 30 Mar 21:23:58 21:28:28 70° 77° (ENE) 21:32:45 467.674
COMPASS 1 30 Mar 21:37:56 21:42:00 54° 75° (ENE) 21:46:07 437.405
AIST 2 30 Mar 21:40:54 21:44:38 30° 247° (WSW) 21:48:17 435.215
DANDE 30 Mar 21:41:05 21:44:12 50° 98° (E) 21:46:52 436.750
Oscar 11 30 Mar 21:46:04 21:49:37 26° 72° (ENE) 21:53:17 145.826/435.025
FUNcube-1 30 Mar 22:00:21 22:03:06 18° 70° (ENE) 22:05:58 145.935
STRAND 1 30 Mar 22:02:06 22:04:48 14° 295° (WNW) 22:07:16 437.568
UWE-3 30 Mar 22:07:36 22:11:05 28° 72° (ENE) 22:14:41 435.000/436.395/437.385
ISS 30 Mar 22:11:03 22:13:56 30° 132° (SE) 22:16:51 145.825
CINEMA 3 30 Mar 22:12:38 22:16:51 82° 77° (ENE) 22:21:00 145.822/145.860
CANX-2 30 Mar 22:12:51 22:16:40 32° 264° (W) 22:20:30 2200.000
ZACube-1 30 Mar 22:13:04 22:16:28 26° 72° (ENE) 22:19:57 437.345
CUBEBUG 2 30 Mar 22:15:13 22:19:08 42° 74° (ENE) 22:23:05 437.445
DELFI C3 30 Mar 22:15:56 22:19:47 43° 74° (ENE) 22:23:41 145.870
AISAT 30 Mar 22:22:34 22:24:00 12° 66° (ENE) 22:25:41 437.250
BRITE-PL 30 Mar 22:24:27 22:27:30 16° 267° (W) 22:30:13 437.365/2234.400
CUSAT 1 30 Mar 22:26:56 22:28:44 15° 283° (WNW) 22:30:21 437.405
CUTE 1.7 + AOD 2 30 Mar 22:26:56 22:30:28 25° 265° (W) 22:33:57 437.475
GONETS M04 30 Mar 22:36:26 22:41:06 14° 298° (WNW) 22:45:09
HO-68 30 Mar 22:41:29 22:47:41 30° 265° (W) 22:53:44 435.675
DOVE 4 30 Mar 22:45:06 22:48:24 20° 266° (W) 22:51:30 437.250
AAUSAT CUBESAT 2 30 Mar 22:45:51 22:49:21 25° 265° (W) 22:52:49 437.432
HUMSAT D 30 Mar 22:52:04 22:55:47 35° 73° (ENE) 22:59:34 437.325/437.525
UKube-1 30 Mar 22:52:17 22:56:33 58° 75° (ENE) 23:00:49 .
SEEDS 30 Mar 22:55:20 22:57:45 14° 269° (W) 22:59:59 437.485
ESTCUBE 1 30 Mar 22:56:07 22:58:21 14° 67° (ENE) 23:00:49 437.505/2401.250
DX 1 30 Mar 23:04:22 23:08:44 87° 77° (ENE) 23:13:06 434.975-435.025
ANTELSAT 30 Mar 23:08:50 23:11:40 16° 92° (E) 23:14:42 437.575/2403.000
PCSat 30 Mar 23:17:40 23:20:02 13° 45° (NE) 23:22:39 145.827
50 SAT 30 Mar 23:21:11 23:24:58 51° 75° (ENE) 23:28:47 437.505
Oscar 11 30 Mar 23:22:23 23:25:48 22° 266° (W) 23:29:08 145.826/435.025
POPSAT HIP 1 30 Mar 23:33:29 23:35:26 13° 91° (E) 23:37:38 437.405
FUNcube-1 30 Mar 23:35:36 23:39:15 30° 264° (W) 23:42:54 145.935
RS-15 30 Mar 23:38:11 23:43:59 15° 343° (NNW) 23:49:33 29.354- 29.394
NANOSAT C BR1 30 Mar 23:42:47 23:45:32 17° 93° (E) 23:48:27 145.865
UWE-3 30 Mar 23:44:42 23:47:43 19° 267° (W) 23:50:36 435.000/436.395/437.385
CUBEBUG 1 30 Mar 23:46:13 23:50:23 44° 74° (ENE) 23:54:35 437.445
ISS 30 Mar 23:47:39 23:50:21 23° 327° (NNW) 23:53:02 145.825
POLYITAN 1 30 Mar 23:48:04 23:51:14 21° 94° (E) 23:54:31 437.675
ZACube-1 30 Mar 23:49:42 23:52:52 20° 266° (W) 23:55:56 437.345
VELOX 1 30 Mar 23:50:22 23:54:49 69° 259° (W) 23:59:15 145.980
SPROUT 30 Mar 23:52:18 23:53:46 12° 67° (ENE) 23:55:27 437.525
DELFI C3 30 Mar 23:53:39 23:55:15 12° 270° (W) 23:56:37 145.870
CUBEBUG 2 30 Mar 23:54:23 23:56:09 12° 269° (W) 23:57:41 437.445
AISAT 30 Mar 23:55:48 00:00:11 57° 260° (W) 00:04:34 437.250
UNISAT 6 31 Mar 00:03:25 00:08:02 69° 102° (ESE) 00:12:42 437.425
TIGRISAT 31 Mar 00:12:56 00:17:33 85° 102° (ESE) 00:22:14 435.000
QB50P1 31 Mar 00:23:37 00:27:47 56° 100° (E) 00:31:57 145.935-145.965
DUCHIFAT 1 31 Mar 00:24:35 00:28:44 56° 100° (E) 00:32:53 145.980
HUMSAT D 31 Mar 00:29:24 00:31:45 14° 268° (W) 00:33:56 437.325/437.525
ESTCUBE 1 31 Mar 00:30:26 00:34:52 49° 261° (W) 00:39:17 437.505/2401.250
YUBILEINY 31 Mar 00:34:56 00:41:51 26° 69° (ENE) 00:49:01 435.215
QB50P2 31 Mar 00:38:57 00:43:12 89° 102° (ESE) 00:47:27 145.880/145.840
ANTELSAT 31 Mar 00:44:18 00:48:39 41° 286° (WNW) 00:53:02 437.575/2403.000
BUGSAT 1 31 Mar 00:58:22 01:02:24 78° 284° (WNW) 01:06:26 437.445
PCSat 31 Mar 00:58:51 01:04:18 89° 235° (SW) 01:09:43 145.827
SWISSCUBE 31 Mar 01:04:45 01:06:32 12° 65° (ENE) 01:08:34 437.505
POPSAT HIP 1 31 Mar 01:07:35 01:11:35 41° 286° (WNW) 01:15:34 437.405
BEESAT 31 Mar 01:07:35 01:09:13 12° 65° (ENE) 01:11:08 436.000
TISAT 1 31 Mar 01:08:59 01:13:13 83° 77° (ENE) 01:17:26 437.305
NANOSAT C BR1 31 Mar 01:17:43 01:21:30 32° 287° (WNW) 01:25:14 145.865
POLYITAN 1 31 Mar 01:23:33 01:27:10 27° 288° (WNW) 01:30:44 437.675
CUBEBUG 1 31 Mar 01:24:39 01:27:02 14° 269° (W) 01:29:10 437.445
SPROUT 31 Mar 01:25:16 01:29:27 52° 260° (W) 01:33:39 437.525
UNISAT 6 31 Mar 01:43:05 01:44:21 11° 294° (WNW) 01:45:19 437.425
ITUPSAT 1 31 Mar 01:52:30 01:56:50 35° 72° (ENE) 02:01:15 437.325
RS-15 31 Mar 01:56:56 02:03:05 16° 20° (NNE) 02:09:46 29.354- 29.394
QB50P1 31 Mar 02:02:03 02:03:15 11° 293° (WNW) 02:04:13 145.935-145.965
DUCHIFAT 1 31 Mar 02:03:00 02:04:09 11° 293° (WNW) 02:05:03 145.980
KKS-1 31 Mar 02:26:07 02:28:11 14° 67° (ENE) 02:30:28 437.445
YUBILEINY 31 Mar 02:30:41 02:39:20 60° 268° (W) 02:47:49 435.215
SWISSCUBE 31 Mar 02:39:09 02:43:55 64° 259° (W) 02:48:43 437.505
BEESAT 31 Mar 02:41:49 02:46:35 66° 259° (W) 02:51:21 436.000
STARS 31 Mar 02:53:28 02:56:13 17° 69° (ENE) 02:59:08 437.465
Oscar 19 31 Mar 02:57:26 03:02:36 70° 101° (ESE) 03:07:47 437.125/150
Gurwin Techsat 1B 31 Mar 03:26:22 03:31:03 32° 96° (E) 03:35:47 435.225
ITUPSAT 1 31 Mar 03:31:13 03:34:51 20° 266° (W) 03:38:22 437.325
AIST 1 31 Mar 03:42:16 03:43:04 11° 87° (E) 03:44:11
O/OREOS (USA 219) 31 Mar 03:56:01 03:59:59 30° 104° (ESE) 04:04:01 437.305
KKS-1 31 Mar 04:00:10 04:04:28 48° 260° (W) 04:08:46 437.445
VERMONT LUNAR 31 Mar 04:06:07 04:08:11 16° 144° (SE) 04:10:18 437.305
ITAMSAT 1 31 Mar 04:06:41 04:11:53 82° 285° (WNW) 04:17:03 435.822/435.867
RS-15 31 Mar 04:08:36 04:19:32 48° 50° (NE) 04:31:02 29.354- 29.394
MOZHAYETS 4 31 Mar 04:14:15 04:15:19 11° 66° (ENE) 04:16:39
SO-50 31 Mar 04:15:01 04:19:51 50° 56° (ENE) 04:24:37 436.795
STARS 31 Mar 04:28:23 04:32:26 36° 262° (W) 04:36:29 437.465
HORYU 2 31 Mar 04:31:33 04:35:30 30° 97° (E) 04:39:29 437.375
Oscar 19 31 Mar 04:39:03 04:41:27 13° 295° (WNW) 04:43:33 437.125/150
ISS 31 Mar 04:41:37 04:43:20 14° 26° (NNE) 04:45:07 145.825
AO-7 31 Mar 04:45:13 04:52:12 31° 96° (E) 04:59:25 29.400- 29.500
M-CUBED/EXP-1 PRIME 31 Mar 04:47:56 04:49:31 12° 60° (ENE) 04:51:21 437.505
JAS-2 31 Mar 04:57:29 05:04:10 34° 93° (E) 05:10:24 435.910
PHONESAT 2.4 31 Mar 05:00:44 05:03:10 18° 145° (SE) 05:05:40 2401.200-2431.200
Gurwin Techsat 1B 31 Mar 05:06:27 05:10:56 28° 291° (WNW) 05:15:19 435.225
AIST 1 31 Mar 05:16:01 05:20:19 52° 279° (W) 05:24:37
O/OREOS (USA 219) 31 Mar 05:35:45 05:39:26 23° 299° (WNW) 05:43:03 437.305
VERMONT LUNAR 31 Mar 05:42:14 05:45:35 89° 150° (SSE) 05:48:56 437.305
MOZHAYETS 4 31 Mar 05:47:27 05:52:02 67° 259° (W) 05:56:39
AUBIESAT-1 31 Mar 05:53:50 05:57:46 61° 70° (ENE) 06:02:06 437.475
SO-50 31 Mar 05:56:49 06:00:03 17° 250° (WSW) 06:03:02 436.795
CUBESAT XI-V 31 Mar 06:05:16 06:07:19 13° 67° (ENE) 06:09:38 437.345
HORYU 2 31 Mar 06:08:31 06:12:00 22° 291° (WNW) 06:15:23 437.375
ISS 31 Mar 06:16:53 06:20:06 75° 225° (SW) 06:23:18 145.825
M-CUBED/EXP-1 PRIME 31 Mar 06:19:59 06:23:53 54° 256° (WSW) 06:28:09 437.505
RS-15 31 Mar 06:21:07 06:32:09 49° 249° (WSW) 06:43:25 29.354- 29.394
AO-7 31 Mar 06:37:21 06:45:20 52° 293° (WNW) 06:53:14 29.400- 29.500
PHONESAT 2.4 31 Mar 06:37:41 06:41:13 87° 337° (NNW) 06:44:46 2401.200-2431.200
JAS-2 31 Mar 06:42:08 06:49:18 43° 291° (WNW) 06:55:47 435.910
CUTE-I 31 Mar 06:42:42 06:45:35 15° 91° (E) 06:48:43 437.470
Cubesat XI-IV 31 Mar 06:43:21 06:46:21 16° 91° (E) 06:49:36 437.490
GONETS M04 31 Mar 06:48:16 06:56:28 42° 75° (ENE) 07:04:47
VERMONT LUNAR 31 Mar 07:20:22 07:23:28 34° 353° (N) 07:26:36 437.305
CUSAT 1 31 Mar 07:22:09 07:24:15 13° 74° (ENE) 07:26:56 437.405
STRAND 1 31 Mar 07:33:44 07:38:50 65° 74° (ENE) 07:43:56 437.568
CUBESAT XI-V 31 Mar 07:39:42 07:44:21 56° 260° (W) 07:48:59 437.345
PRISM 31 Mar 07:41:12 07:45:22 61° 259° (W) 07:49:33 437.425
PHONESAT 2.4 31 Mar 08:16:31 08:19:48 36° 354° (N) 08:23:06 2401.200-2431.200
CUTE-I 31 Mar 08:20:52 08:26:05 56° 287° (WNW) 08:31:15 437.470
DANDE 31 Mar 08:21:11 08:25:18 37° 80° (E) 08:30:45 436.750
Cubesat XI-IV 31 Mar 08:21:40 08:26:52 54° 287° (WNW) 08:32:01 437.490
GONETS M04 31 Mar 08:45:17 08:53:14 37° 272° (W) 09:01:00
BRITE-PL 31 Mar 08:53:00 08:55:13 14° 93° (E) 08:57:42 437.365/2234.400
VERMONT LUNAR 31 Mar 08:58:24 09:01:35 39° 10° (N) 09:04:46 437.305
CUSAT 1 31 Mar 09:02:21 09:07:02 62° 262° (W) 09:13:17 437.405
STRAND 1 31 Mar 09:16:23 09:18:34 12° 270° (W) 09:20:25 437.568
COMPASS 1 31 Mar 09:26:59 09:28:11 11° 90° (E) 09:29:40 437.405
GOMX 1 31 Mar 09:28:45 09:32:16 24° 96° (E) 09:36:03 467.674
PHONESAT 2.4 31 Mar 09:55:10 09:58:33 43° 11° (N) 10:01:57 2401.200-2431.200
CANX-2 31 Mar 10:00:48 10:05:01 51° 99° (E) 10:09:13 2200.000
DANDE 31 Mar 10:05:09 10:08:36 19° 264° (W) 10:12:31 436.750
CINEMA 3 31 Mar 10:10:31 10:14:10 24° 95° (E) 10:18:01 145.822/145.860
CUBEBUG 2 31 Mar 10:10:50 10:12:35 12° 91° (E) 10:14:39 437.445
HO-68 31 Mar 10:11:07 10:18:16 63° 102° (ESE) 10:25:23 435.675
BEESAT 2 31 Mar 10:11:51 10:15:40 39° 115° (ESE) 10:19:34 435.950
CUTE 1.7 + AOD 2 31 Mar 10:14:22 10:18:40 68° 101° (E) 10:22:57 437.475
BRITE-PL 31 Mar 10:29:58 10:33:58 40° 286° (WNW) 10:38:08 437.365/2234.400
AAUSAT CUBESAT 2 31 Mar 10:31:13 10:35:25 61° 100° (E) 10:39:35 437.432
VERMONT LUNAR 31 Mar 10:36:03 10:39:22 59° 206° (SSW) 10:42:41 437.305
POLYITAN 1 31 Mar 10:40:24 10:41:38 11° 67° (ENE) 10:43:08 437.675
SEEDS 31 Mar 10:40:39 10:44:56 69° 283° (WNW) 10:49:10 437.485
UKube-1 31 Mar 10:45:03 10:46:42 12° 91° (E) 10:48:35 .
DOVE 4 31 Mar 10:45:12 10:49:34 66° 284° (WNW) 10:54:12 437.250
BEESAT 3 31 Mar 10:46:15 10:50:18 65° 300° (WNW) 10:54:25 437.485
DX 1 31 Mar 10:56:50 10:59:49 19° 94° (E) 11:02:56 434.975-435.025
UNISAT 6 31 Mar 10:59:54 11:03:51 39° 73° (ENE) 11:07:54 437.425
COMPASS 1 31 Mar 11:00:07 11:04:14 49° 285° (WNW) 11:08:20 437.405
GOMX 1 31 Mar 11:06:48 11:10:24 25° 288° (WNW) 11:14:05 467.674
TIGRISAT 31 Mar 11:09:01 11:13:06 49° 74° (ENE) 11:17:17 435.000
Oscar 11 31 Mar 11:11:37 11:16:00 83° 100° (E) 11:20:22 145.826/435.025
QB50P1 31 Mar 11:13:53 11:17:27 28° 72° (ENE) 11:21:05 145.935-145.965
DUCHIFAT 1 31 Mar 11:14:32 11:18:06 28° 72° (ENE) 11:21:43 145.980
FUNcube-1 31 Mar 11:26:07 11:30:29 60° 100° (E) 11:34:57 145.935
QB50P2 31 Mar 11:28:59 11:32:58 43° 74° (ENE) 11:37:00 145.880/145.840
PHONESAT 2.4 31 Mar 11:33:30 11:36:58 55° 207° (SSW) 11:40:27 2401.200-2431.200
DELFI C3 31 Mar 11:33:32 11:37:37 68° 284° (WNW) 11:41:40 145.870
AIST 2 31 Mar 11:35:19 11:39:33 70° 300° (WNW) 11:43:50 435.215
UWE-3 31 Mar 11:35:46 11:40:14 82° 283° (WNW) 11:44:50 435.000/436.395/437.385
CANX-2 31 Mar 11:38:44 11:40:34 12° 292° (WNW) 11:42:10 2200.000
ZACube-1 31 Mar 11:39:45 11:44:12 89° 102° (ESE) 11:48:44 437.345
ANTELSAT 31 Mar 11:40:16 11:44:30 66° 259° (WSW) 11:48:49 437.575/2403.000
VELOX 1 31 Mar 11:44:31 11:48:16 27° 96° (E) 11:52:03 145.980
CUBEBUG 2 31 Mar 11:45:15 11:49:36 52° 285° (WNW) 11:54:04 437.445
BUGSAT 1 31 Mar 11:45:24 11:49:23 46° 75° (ENE) 11:53:21 437.445
CINEMA 3 31 Mar 11:47:32 11:51:20 27° 288° (WNW) 11:55:12 145.822/145.860
AISAT 31 Mar 11:49:57 11:53:55 33° 97° (E) 11:57:54 437.250
BEESAT 2 31 Mar 11:51:10 11:54:01 17° 311° (NW) 11:56:47 435.950
POPSAT HIP 1 31 Mar 11:57:02 12:01:15 85° 260° (W) 12:05:29 437.405
HO-68 31 Mar 12:00:02 12:05:30 23° 298° (WNW) 12:10:41 435.675
NANOSAT C BR1 31 Mar 12:06:48 12:10:59 64° 260° (W) 12:15:10 145.865
POLYITAN 1 31 Mar 12:13:04 12:17:11 52° 260° (W) 12:21:17 437.675
HUMSAT D 31 Mar 12:14:20 12:18:36 74° 283° (WNW) 12:22:54 437.325/437.525
UKube-1 31 Mar 12:19:01 12:23:10 47° 286° (WNW) 12:27:18 .
ESTCUBE 1 31 Mar 12:26:18 12:30:35 42° 98° (E) 12:34:51 437.505/2401.250
DX 1 31 Mar 12:32:17 12:36:09 31° 289° (WNW) 12:39:58 434.975-435.025
50 SAT 31 Mar 12:36:34 12:40:34 59° 285° (WNW) 12:44:33 437.505
UNISAT 6 31 Mar 12:38:29 12:40:54 14° 269° (W) 12:43:07 437.425
TIGRISAT 31 Mar 12:48:49 12:50:16 11° 270° (W) 12:51:26 435.000
QB50P1 31 Mar 12:50:13 12:53:22 20° 266° (W) 12:56:24 145.935-145.965
DUCHIFAT 1 31 Mar 12:50:49 12:53:58 20° 266° (W) 12:56:59 145.980
TISAT 1 31 Mar 12:58:00 13:00:33 16° 93° (E) 13:03:16 437.305
FUNcube-1 31 Mar 13:04:55 13:06:25 11° 293° (WNW) 13:07:40 145.935
QB50P2 31 Mar 13:07:12 13:09:10 13° 269° (W) 13:10:54 145.880/145.840
JUGNU 31 Mar 13:10:22 13:12:01 11° 166° (SSE) 13:13:45 437.505
CUBEBUG 1 31 Mar 13:14:16 13:18:31 57° 285° (WNW) 13:22:45 437.445
SPROUT 31 Mar 13:15:13 13:19:03 32° 97° (E) 13:22:56 437.525
VELOX 1 31 Mar 13:21:15 13:24:43 22° 290° (WNW) 13:28:05 145.980
BUGSAT 1 31 Mar 13:23:42 13:25:11 11° 269° (W) 13:26:23 437.445
AISAT 31 Mar 13:27:09 13:30:19 19° 291° (WNW) 13:33:21 437.250
YUBILEINY 31 Mar 13:31:58 13:39:23 33° 87° (E) 13:47:04 435.215
ITAMSAT 1 31 Mar 13:45:51 13:47:47 12° 64° (ENE) 13:50:00 435.822/435.867
PCSat 31 Mar 13:56:08 13:59:38 18° 106° (ESE) 14:03:21 145.827
ITUPSAT 1 31 Mar 13:58:33 13:59:53 11° 89° (E) 14:01:34 437.325
ESTCUBE 1 31 Mar 14:04:21 14:07:09 16° 292° (WNW) 14:09:45 437.505/2401.250
O/OREOS (USA 219) 31 Mar 14:08:45 14:12:53 34° 64° (ENE) 14:17:00 437.305
Oscar 19 31 Mar 14:11:13 14:16:18 74° 75° (ENE) 14:21:26 437.125/150
TISAT 1 31 Mar 14:32:40 14:36:29 34° 287° (WNW) 14:40:15 437.305
SWISSCUBE 31 Mar 14:42:48 14:47:18 41° 98° (E) 14:51:48 437.505
Gurwin Techsat 1B 31 Mar 14:44:26 14:49:15 38° 71° (ENE) 14:54:10 435.225
BEESAT 31 Mar 14:45:22 14:49:51 40° 98° (E) 14:54:21 436.000
SPROUT 31 Mar 14:51:57 14:54:57 18° 290° (WNW) 14:57:48 437.525
JUGNU 31 Mar 14:56:36 15:00:18 17° 176° (S) 15:04:03 437.505
JAS-2 31 Mar 15:09:43 15:11:44 12° 56° (ENE) 15:14:20 435.910
ITAMSAT 1 31 Mar 15:21:31 15:26:44 74° 258° (WSW) 15:31:58 435.822/435.867
AIST 1 31 Mar 15:26:51 15:30:27 26° 76° (ENE) 15:34:06
YUBILEINY 31 Mar 15:27:33 15:35:58 47° 284° (WNW) 15:44:24 435.215
HORYU 2 31 Mar 15:27:44 15:30:52 20° 69° (ENE) 15:34:08 437.375
ITUPSAT 1 31 Mar 15:33:33 15:38:18 61° 285° (WNW) 15:42:59 437.325
PCSat 31 Mar 15:37:26 15:42:41 51° 300° (WNW) 15:47:59 145.827
AO-7 31 Mar 15:41:09 15:48:13 34° 63° (ENE) 15:55:28 29.400- 29.500
O/OREOS (USA 219) 31 Mar 15:48:54 15:52:04 18° 259° (WSW) 15:55:03 437.305
KKS-1 31 Mar 15:54:21 15:58:31 39° 98° (E) 16:02:42 437.445
Oscar 19 31 Mar 15:55:20 15:56:19 10° 272° (W) 15:56:53 437.125/150
SRMSAT 31 Mar 16:00:23 16:03:48 16° 173° (S) 16:07:15 437.500
STARS 31 Mar 16:20:52 16:25:09 49° 100° (E) 16:29:26 437.465
SWISSCUBE 31 Mar 16:21:36 16:24:53 18° 292° (WNW) 16:28:01 437.505
BEESAT 31 Mar 16:24:06 16:27:27 19° 292° (WNW) 16:30:38 436.000
Gurwin Techsat 1B 31 Mar 16:25:09 16:29:22 23° 266° (W) 16:33:28 435.225
JUGNU 31 Mar 16:45:02 16:48:38 16° 186° (S) 16:52:11 437.505
JAS-2 31 Mar 16:48:37 16:55:25 68° 73° (ENE) 17:03:00 435.910
HORYU 2 31 Mar 17:03:21 17:07:20 32° 263° (W) 17:11:19 437.375
AIST 1 31 Mar 17:04:49 17:07:59 20° 271° (W) 17:10:59
KKS-1 31 Mar 17:32:00 17:34:53 17° 292° (WNW) 17:37:37 437.445
AO-7 31 Mar 17:32:45 17:40:47 50° 259° (W) 17:48:45 29.400- 29.500
MOZHAYETS 4 31 Mar 17:45:56 17:50:13 36° 97° (E) 17:54:29
SRMSAT 31 Mar 17:48:30 17:52:16 17° 183° (S) 17:56:01 437.500
STARS 31 Mar 17:59:03 18:01:15 13° 293° (WNW) 18:03:14 437.465
CUTE-I 31 Mar 18:01:28 18:05:11 20° 67° (ENE) 18:09:06 437.470
Cubesat XI-IV 31 Mar 18:02:17 18:06:06 21° 67° (ENE) 18:10:05 437.490
M-CUBED/EXP-1 PRIME 31 Mar 18:05:39 18:08:45 18° 96° (E) 18:11:59 437.505
SO-50 31 Mar 18:26:59 18:30:59 31° 113° (ESE) 18:35:12 436.795
RS-15 31 Mar 18:29:34 18:39:00 37° 108° (ESE) 18:48:44 29.354- 29.394
BEESAT 2 31 Mar 18:35:50 18:37:20 12° 45° (NE) 18:39:01 435.950
JAS-2 31 Mar 18:36:12 18:41:15 20° 273° (W) 18:46:16 435.910
BEESAT 3 31 Mar 19:08:27 19:12:01 28° 53° (NE) 19:15:34 437.485
AUBIESAT-1 31 Mar 19:12:28 19:17:19 85° 107° (ESE) 19:21:57 437.475
MOZHAYETS 4 31 Mar 19:23:52 19:27:13 19° 291° (WNW) 19:30:23
PRISM 31 Mar 19:27:34 19:30:48 22° 95° (E) 19:34:07 437.425
SRMSAT 31 Mar 19:38:28 19:40:43 12° 192° (SSW) 19:42:51 437.500
